Port Weller, Ontario

9:39 AM EDT on April 23, 2017 (GMT -0400)
Port Weller

Weather History for CWWZ - December, 2012

Change the Weather History Date:

Saturday, December 22, 2012

  Actual Average (CYSN) Record (CYSN)
Temperature  
Mean Temperature 34 °F -  
Max Temperature 36 °F 32 °F 55 °F (2015)
Min Temperature 31 °F 22 °F 6 °F (2000)
Degree Days  
Heating Degree Days 32    
Moisture  
Dew Point 25 °F    
Average Humidity 67    
Maximum Humidity 76    
Minimum Humidity 50    
Precipitation  
Precipitation 0.00 in - - ()
Sea Level Pressure  
Sea Level Pressure 29.78 in    
Wind  
Wind Speed 30 mph ()    
Max Wind Speed 41 mph    
Max Gust Speed 48 mph    
Averages and records for this station are not official NWS values.
T = Trace of Precipitation, MM = Missing Value Source: Averaged Metar Reports

Daily Weather History Graph

Daily Weather History Graph

Search for Another Location

Airport or City:

Trip Planner

Search our weather history database for the weather conditions in past years. The results will help you decide how hot, cold, wet, or windy it might be!

Date:

Astronomy

Dec. 22, 2012 Rise Set
Actual Time 7:46 AM EST 4:45 PM EST
Civil Twilight 7:13 AM EST 5:17 PM EST
Nautical Twilight 6:37 AM EST 5:53 PM EST
Astronomical Twilight 6:03 AM EST 6:28 PM EST
Moon 1:06 PM EST (12/22) 2:24 AM EST (12/22)
Length of Visible Light 10h 03m
Length of Day
8h 58m
Waxing Gibbous, 73% of the Moon is Illuminated
Dec 22
Waxing Gibbous
Dec 28
Full
Jan 4
Last Quarter
Jan 11
New
Jan 18
First Quarter

Hourly Weather History & Observations

Time (EST) Temp. Windchill Dew Point Humidity Pressure Visibility Wind Dir Wind Speed Gust Speed Precip Events Conditions
12:00 AM 34.9 °F 20.0 °F 27.1 °F 73% 29.47 in - NW 39.1 mph 47.2 mph N/A   Unknown
1:00 AM 35 °F - 26 °F 59% 29.50 in - NW 32.2 mph - -  
1:00 AM 34.7 °F 20.9 °F 25.9 °F 70% 29.50 in - NW 32.2 mph 40.3 mph N/A   Unknown
2:00 AM 35.1 °F 21.2 °F 27.3 °F 73% 29.53 in - WNW 33.4 mph 42.6 mph N/A   Unknown
3:00 AM 33.8 °F 19.2 °F 26.8 °F 75% 29.58 in - WNW 34.5 mph - N/A   Unknown
4:00 AM 33 °F - 25 °F 62% 29.61 in - WNW 39.1 mph - -  
4:00 AM 33.1 °F 17.5 °F 24.8 °F 72% 29.61 in - WNW 39.1 mph 44.9 mph N/A   Unknown
5:00 AM 31.5 °F 15.2 °F 24.6 °F 76% 29.65 in - WNW 39.1 mph 47.2 mph N/A   Unknown
6:00 AM 31.6 °F 15.1 °F 23.7 °F 73% 29.69 in - WNW 41.4 mph 48.3 mph N/A   Unknown
7:00 AM 33 °F - 24 °F 58% 29.73 in - WNW 36.8 mph - -  
7:00 AM 31.5 °F 15.6 °F 23.7 °F 73% 29.73 in - WNW 36.8 mph 44.9 mph N/A   Unknown
8:00 AM 31.5 °F 16.4 °F 23.9 °F 74% 29.77 in - WNW 32.2 mph 39.1 mph N/A   Unknown
9:00 AM 31.8 °F 17.9 °F 23.9 °F 73% 29.80 in - WNW 27.6 mph 34.5 mph N/A   Unknown
10:00 AM 33 °F - 24 °F 59% 29.81 in - WNW 31.1 mph - -  
10:00 AM 33.3 °F 19.1 °F 23.9 °F 69% 29.81 in - WNW 31.1 mph 40.3 mph N/A   Unknown
11:00 AM 34.0 °F 20.5 °F 24.4 °F 68% 29.83 in - WNW 28.8 mph 35.7 mph N/A   Unknown
12:00 PM 34.7 °F 21.5 °F 23.9 °F 65% 29.83 in - WNW 28.8 mph 38.0 mph N/A   Unknown
1:00 PM 35 °F - 24 °F 51% 29.83 in - WNW 31.1 mph - -  
1:00 PM 35.4 °F 22.1 °F 23.5 °F 62% 29.83 in - WNW 31.1 mph - N/A   Unknown
2:00 PM 36.0 °F 23.0 °F 24.3 °F 63% 29.83 in - WNW 29.9 mph 38.0 mph N/A   Unknown
3:00 PM 36.0 °F 22.8 °F 23.0 °F 59% 29.85 in - WNW 31.1 mph - N/A   Unknown
4:00 PM 36 °F - 24 °F 50% 29.88 in - WNW 31.1 mph - -  
4:00 PM 35.8 °F 22.5 °F 24.3 °F 63% 29.88 in - WNW 31.1 mph - N/A   Unknown
5:00 PM 35.8 °F 23.0 °F 27.3 °F 71% 29.89 in - West 28.8 mph 38.0 mph N/A   Unknown
6:00 PM 35.2 °F 21.4 °F 25.5 °F 68% 29.92 in - West 33.4 mph 39.1 mph N/A   Unknown
7:00 PM 35 °F - 25 °F 55% 29.94 in - West 36.8 mph - -  
7:00 PM 34.9 °F 20.3 °F 24.8 °F 67% 29.94 in - West 36.8 mph 46.0 mph N/A   Unknown
8:00 PM 34.9 °F 21.8 °F 25.3 °F 68% 29.94 in - West 28.8 mph 35.7 mph N/A   Unknown
9:00 PM 35.1 °F 22.7 °F 26.6 °F 71% 29.94 in - West 25.3 mph 31.1 mph N/A   Unknown
10:00 PM 35 °F - 27 °F 63% 29.94 in - West 21.9 mph - -  
10:00 PM 35.2 °F 23.8 °F 27.0 °F 72% 29.94 in - West 21.9 mph 28.8 mph N/A   Unknown
11:00 PM 33.8 °F 25.3 °F 26.4 °F 74% 29.94 in - WSW 11.5 mph 20.7 mph N/A   Unknown